Home   Weather   Kaliningrad   Past weeks

Flag for Russia Past Weather in Kaliningrad, Russia — Yesterday and Last 2 Weeks

46 °F


Feels Like: 42 °F
Forecast: 43 / 45 °F
Wind: 8 mph from Southeast

Location: Kaliningrad/Khrabrovo Airport

Current Time: Oct 23, 2016 at 4:24:33 PM

Latest Report: Oct 23, 2016 at 4:00 PM

Visibility: 5 mi

Pressure: 30.21 "Hg

Humidity: 93%

Dew Point: 45 °F

Location of KaliningradLocation

Past Weather in Kaliningrad — Graph


Kaliningrad Temperature Yesterday

Maximum temperature yesterday: 39 °F (at 12:00 AM)
Minimum temperature yesterday: 34 °F (at 3:30 PM)
Average temperature yesterday: 37 °F

High & Low Weather Summary for the Past Weeks

High50 °F (Oct 9, 1:30 PM)100% (Oct 8, 6:00 PM)30.60 "Hg (Oct 8, 6:00 PM)
Low27 °F (Oct 17, 7:00 AM)43% (Oct 17, 2:00 PM)30.04 "Hg (Oct 8, 5:30 PM)
Average40 °F92%30.26 "Hg
* Reported Oct 8 3:00 PM — Oct 23 3:00 PM, Kaliningrad, Weather by CustomWeather, © 2016

Note: Actual official high and low records may vary slightly from our data, if they occured in-between our weather recording intervals... More about our weather records


Kaliningrad Weather History for the Previous 24 Hours

Scroll right to see more
Time TempWeatherWind HumidityBarometerVisibility
3:00 PM
Sun, Oct 23
46 °FMore clouds than sun.10 mph93%30.21 "Hg5 mi
2:30 PM46 °FMore clouds than sun.10 mph93%30.21 "Hg5 mi
2:00 PM46 °FMore clouds than sun.10 mph93%30.18 "Hg4 mi
1:30 PM45 °FLow clouds.8 mph100%30.18 "Hg4 mi
1:00 PM45 °FLow clouds.10 mph100%30.18 "Hg4 mi
12:30 PM45 °FFog.10 mph100%30.18 "Hg3 mi
12:00 PM43 °FLow clouds.10 mph100%30.18 "Hg4 mi
11:30 AM43 °FLow clouds.13 mph100%30.18 "Hg4 mi
11:00 AM43 °FFog.10 mph100%30.18 "Hg3 mi
10:30 AM43 °FFog.13 mph100%30.18 "Hg3 mi
10:00 AM43 °FFog.8 mph100%30.15 "Hg3 mi
9:30 AM43 °FFog.6 mph100%30.15 "Hg3 mi
9:00 AM41 °FFog.8 mph100%30.15 "Hg3 mi
8:30 AM41 °FFog.6 mph100%30.15 "Hg3 mi
8:00 AM39 °FMostly cloudy.3 mph100%30.12 "Hg4 mi
7:30 AM39 °FMostly cloudy.6 mph100%30.12 "Hg4 mi
7:00 AM39 °FMostly cloudy.6 mph100%30.12 "Hg4 mi
6:30 AM39 °FMostly cloudy.8 mph100%30.09 "Hg4 mi
6:00 AM37 °FMostly cloudy.3 mph100%30.09 "Hg4 mi
5:30 AM37 °FMostly cloudy.3 mph100%30.09 "Hg4 mi
5:00 AM37 °FMostly cloudy.6 mph100%30.09 "Hg4 mi
4:30 AM37 °FMostly cloudy.6 mph100%30.09 "Hg5 mi
4:00 AM37 °FMostly cloudy.6 mph100%30.09 "Hg5 mi
3:00 AM37 °FMostly cloudy.3 mph100%30.07 "Hg5 mi
2:00 AM36 °FLight rain. Mostly cloudy.3 mph100%30.07 "Hg5 mi
1:00 AM37 °FLight rain. Mostly cloudy.3 mph100%30.07 "Hg5 mi
12:00 AM36 °FLight rain. Mostly cloudy.6 mph100%30.07 "Hg5 mi
11:00 PM
Sat, Oct 22
36 °FLight rain. Mostly cloudy.6 mph100%30.07 "Hg5 mi
10:30 PM36 °FLight rain. Mostly cloudy.8 mph100%30.07 "Hg4 mi
10:00 PM36 °FLight rain. Mostly cloudy.8 mph100%30.07 "Hg5 mi
9:30 PM36 °FLight rain. Mostly cloudy.8 mph100%30.07 "Hg5 mi
9:00 PM36 °FLight rain. Mostly cloudy.8 mph100%30.07 "Hg5 mi
8:30 PM36 °FLight rain. Mostly cloudy.10 mph100%30.07 "Hg5 mi
8:00 PM36 °FLight rain. Mostly cloudy.10 mph100%30.07 "Hg4 mi
7:30 PM36 °FLight rain. Mostly cloudy.10 mph100%30.07 "Hg5 mi
7:00 PM36 °FLight rain. Low clouds.10 mph100%30.07 "Hg4 mi
6:30 PM36 °FLight rain. Low clouds.10 mph100%30.07 "Hg5 mi
6:00 PM37 °FLight rain. Fog.10 mph100%30.07 "Hg3 mi
5:30 PM36 °FLight rain. Fog.6 mph100%30.07 "Hg3 mi
5:00 PM36 °FLight rain. Fog.6 mph100%30.07 "Hg3 mi
4:30 PM34 °FLight rain. Low clouds.6 mph100%30.07 "Hg4 mi
4:00 PM34 °FLight rain. Fog.8 mph100%30.07 "Hg3 mi
Weather by CustomWeather, © 2016

See weather overviewHow to use our weather pages